Regional Weather Roundup
Issued by NWS

Home | Current Version | Previous Version | Graphics & Text | Print | Product List | Glossary On
Versions: 1 2 3 4 5 6 7 8 9 10 11 12 13 14 15 16 17 18 19 20 21 22 23 24 25 26 27 28 29 30 31 32 33 34 35 36 37 38 39 40 41 42 43 44 45 46 47 48 49 50
000
ASUS43 KLOT 271210
RWRIL

ILLINOIS REGIONAL WEATHER ROUNDUP
NATIONAL WEATHER SERVICE CHICAGO/ROMEOVILLE IL
600 AM CST FRI FEB 27 2015

NOTE: "FAIR" INDICATES FEW OR NO CLOUDS BELOW 12,000 FEET WITH NO
SIGNIFICANT WEATHER AND/OR OBSTRUCTIONS TO VISIBILITY.

* THESE STATIONS ARE NOT UNDER NWS QUALITY CONTROL. THEY ALSO MAY NOT
  REPORT WEATHER SUCH AS PRECIPITATION OR FOG.

ILZ001-002-007-009-015-016-024-271300-
NORTHWEST ILLINOIS

CITY           SKY/WX    TMP DP  RH WIND       PRES   REMARKS
MOLINE         CLEAR    -11 -16  78 W7        30.58R WCI -26
6HR MIN TEMP: -12; 6HR MAX TEMP:  -1;

STERLING*      PTCLDY   -13 -22  64 CALM      30.55R
SAVANNA*       PTCLDY   -17 -23  72 CALM      30.57R
$$

ILZ003-004-008-010-011-017-018-271300-
NORTH CENTRAL ILLINOIS

CITY           SKY/WX    TMP DP  RH WIND       PRES   REMARKS
ROCKFORD       CLEAR    -14 -20  74 CALM      30.54R
6HR MIN TEMP: -14; 6HR MAX TEMP:  -4;

FREEPORT*      CLEAR    -12 -16  80 CALM      30.53S
ROCHELLE*      CLEAR    -19 -24  80 CALM      30.54R
DE KALB*       CLEAR    -11 -15  79 W7        30.51R WCI -26
PERU*          CLEAR     -7 -12  78 NW8       30.55S WCI -23
$$

ILZ005-006-012>014-019>023-271300-
NORTHEAST ILLINOIS

CITY           SKY/WX    TMP DP  RH WIND       PRES   REMARKS
CHICAGO-OHARE  FAIR      -1 -10  65 NW9       30.50R WCI -16
6HR MIN TEMP:  -2; 6HR MAX TEMP:   5;

CHICAGO-MIDWAY FAIR       2  -6  69 W3        30.52R
6HR MIN TEMP:   0; 6HR MAX TEMP:   8;

AURORA         CLEAR    -15 -21  74 W7        30.53R WCI -31
6HR MIN TEMP: -16; 6HR MAX TEMP:  -7;

LANSING*       CLEAR     -7 -11  83 W3        30.52R
JOLIET*        CLEAR    -12 -15  85 CALM      30.54R
WAUKEGAN       CLEAR     -3 -10  72 W6        30.49R WCI -15
6HR MIN TEMP:  -7; 6HR MAX TEMP:  -1;

DUPAGE AIRPORT CLEAR     -7 -13  75 NW6       30.50R WCI -20
6HR MIN TEMP:  -7; 6HR MAX TEMP:  -1;

KANKAKEE*      CLEAR    -10 -14  80 W5        30.54R WCI -21
WHEELING       CLEAR      1  -9  62 NW8       30.52R WCI -13
6HR MIN TEMP:  -2; 6HR MAX TEMP:   3;

MORRIS*        CLEAR     -8 -12  80 W3        30.53R
ROMEOVILLE*    CLEAR     -8 -12  82 NW7       30.52R WCI -23
NORTHERLY ISL    N/A      8  -2  63 W6          N/A  WCI  -2
$$

LMZ740>746-271300-
SOUTHERN LAKE MICHIGAN

STATION/POSITION SKY/WX   TEMP    WIND        PRES    VSBY  WAVE
                          AIR SEA DIR/SP/G                  HT/PER
                          (F)     (DEG/KT/KT) (MB)    (MI)  (FT/S)
WAUKEGAN HARBOR             1     290/ 10/ 15   N/A
HARRISON CRIB               7     300/ 11/ 13   N/A
BURNHAM HARBOR              8     280/  3/  8   N/A
CALUMET HARBOR              6     280/  5/  6 1031.7R
MICHIGAN CITY               5     120/  4/  5   N/A
$$

ILZ025>027-034>036-040-047-049-050-058-095>099-271300-
WEST-CENTRAL ILLINOIS

CITY           SKY/WX    TMP DP  RH WIND       PRES   REMARKS
QUINCY         PTCLDY    -7 -12  79 W7        30.58R WCI -21
GALESBURG*     CLEAR    -12 -16  84 W8        30.57R WCI -29
MACOMB*        PTCLDY   -12 -16  84 NW13      30.59S WCI -33
JACKSONVILLE*  PTCLDY    -7 -13  77 W6        30.60R WCI -20
PITTSFIELD*    PTCLDY    -3  -8  79 W6        30.60R WCI -15
$$

ILZ028>032-037-038-041>044-048-051>054-059>061-271300-
CENTRAL ILLINOIS

CITY           SKY/WX    TMP DP  RH WIND       PRES   REMARKS
PONTIAC        CLEAR     -6 -11  81 W5        30.55S WCI -17
BLOOMINGTON    CLEAR     -5 -10  79 W6        30.53R WCI -17
DECATUR        PTCLDY    -2  -7  79 W6        30.56R WCI -14
PEORIA         CLEAR     -6 -12  75 NW3       30.57R
6HR MIN TEMP:  -6; 6HR MAX TEMP:   2;

LACON*         CLEAR    -11 -15  81 CALM      30.57R
LINCOLN*       FAIR      -2  -8  78 CALM      30.61R
SPRINGFIELD    CLEAR    -11 -17  75 W5        30.59R WCI -23
6HR MIN TEMP: -12; 6HR MAX TEMP:   4;

TAYLORVILLE    CLEAR     -6  -9  84 W6        30.58R WCI -18
$$

ILZ033-039-045-046-055>057-062-063-271300-
EAST-CENTRAL ILLINOIS

CITY           SKY/WX    TMP DP  RH WIND       PRES   REMARKS
CHAMPAIGN      CLEAR     -6 -10  83 W7        30.54R WCI -20
DANVILLE*      CLEAR     -3  -6  83 W3        30.50R
RANTOUL*       CLEAR     -3  -8  78 NW9       30.53R WCI -19
MATTOON        CLEAR     -4  -9  79 W5        30.54R WCI -15
PARIS*         PTCLDY    -1  -5  84 NW5       30.55R WCI -11
$$

ILZ079-100>102-271300-
SOUTHWEST ILLINOIS

CITY           SKY/WX    TMP DP  RH WIND       PRES   REMARKS
BELLEVILLE     CLEAR      3  -3  76 NW6       30.61R WCI  -8
CAHOKIA*       CLEAR      4  -3  73 N3        30.63R
SPARTA*        CLEAR      6  -1  73 NW7       30.62R WCI  -6
$$

ILZ064>066-069>071-074>076-080>082-084>086-088>090-092>094-271300-
SOUTH-CENTRAL ILLINOIS

CITY           SKY/WX    TMP DP  RH WIND       PRES   REMARKS
CARBONDALE     FLURRIES   8  -1  66 N8        30.61R WCI  -4
6HR MIN TEMP:   8; 6HR MAX TEMP:  16; 6HR PCP: TRACE;

CAIRO*         CLEAR     13   5  69 N9        30.60R WCI   1
EFFINGHAM*     CLEAR      1  -8  68 NW5       30.60R WCI  -9
MARION         CLEAR      9   1  72 NW7       30.61R WCI  -3
MT. VERNON     CLEAR      5  -6  61 N3        30.59R
CENTRALIA*     CLEAR      4  -3  72 NW7       30.60R WCI  -8
SALEM*         CLEAR      3  -4  71 NW6       30.60R WCI  -8
METROPOLIS*    CLEAR     12   8  83 NW6       30.57R WCI   3
$$

ILZ067-068-072-073-078-083-087-091-271300-
SOUTHEAST ILLINOIS

CITY           SKY/WX    TMP DP  RH WIND       PRES   REMARKS
LAWRENCEVILLE  CLOUDY    11   3  70 NW7       30.57R WCI   0
FLORA*         PTCLDY     2  -3  77 NW8       30.60R WCI -12
FAIRFIELD*     MOCLDY     5  -1  76 CALM      30.59R
HARRISBURG*    LGT SNOW  11   7  83 NW5       30.61R WCI   3
ROBINSON*      CLOUDY     9   3  77 NW5       30.58R WCI   0
CARMI*         LGT SNOW  13  10  89 NW10      30.58R WCI   0
$$

ABBREVIATIONS USED IN REMARKS
   TC - TEMPERATURE IN CELSIUS
  WCI - WIND CHILL INDEX
   HX - HEAT INDEX
  VSB - VISIBILITY
$$




USA.gov is the U.S. government's official web portal to all federal, state and local government web resources and services.